Time,TemperatureF,DewpointF,PressureIn,WindDirection,WindDirectionDegrees,WindSpeedMPH,WindSpeedGustMPH,Humidity,HourlyPrecipIn,Conditions,Clouds,dailyrainin,SolarRadiationWatts/m^2,SoftwareType,DateUTC
2013-05-23 00:02:00,62.0,33.0,-100.00,East,98,0.0,2.0,34,0.00,,,0.00,0.000000,,2013-05-23 06:02:00,
2013-05-23 00:12:00,62.0,33.0,-100.00,East,98,0.0,2.0,34,0.00,,,0.00,0.000000,,2013-05-23 06:12:00,
2013-05-23 00:21:00,62.0,33.0,-100.00,East,98,0.0,2.0,34,0.00,,,0.00,0.000000,,2013-05-23 06:21:00,
2013-05-23 00:32:00,62.0,33.0,-100.00,East,98,0.0,2.0,34,0.00,,,0.00,0.000000,,2013-05-23 06:32:00,
2013-05-23 00:42:00,58.0,33.0,-100.00,NNE,32,1.0,4.0,39,0.00,,,0.00,0.000000,,2013-05-23 06:42:00,
2013-05-23 01:02:00,58.0,33.0,-100.00,NNE,32,1.0,4.0,39,0.00,,,0.00,0.000000,,2013-05-23 07:02:00,
2013-05-23 01:11:00,58.0,33.0,-100.00,NNE,32,1.0,4.0,39,0.00,,,0.00,0.000000,,2013-05-23 07:11:00,
2013-05-23 01:21:00,58.0,33.0,-100.00,NNE,32,1.0,4.0,39,0.00,,,0.00,0.000000,,2013-05-23 07:21:00,
2013-05-23 01:32:00,58.0,33.0,-100.00,NNE,32,1.0,4.0,39,0.00,,,0.00,0.000000,,2013-05-23 07:32:00,
2013-05-23 01:42:00,54.0,34.0,-100.00,NE,39,1.0,3.0,46,0.00,,,0.00,0.000000,,2013-05-23 07:42:00,
2013-05-23 02:02:00,54.0,34.0,-100.00,NE,39,1.0,3.0,46,0.00,,,0.00,0.000000,,2013-05-23 08:02:00,
2013-05-23 02:11:00,54.0,34.0,-100.00,NE,39,1.0,3.0,46,0.00,,,0.00,0.000000,,2013-05-23 08:11:00,
2013-05-23 02:22:00,54.0,34.0,-100.00,NE,39,1.0,3.0,46,0.00,,,0.00,0.000000,,2013-05-23 08:22:00,
2013-05-23 02:31:00,54.0,34.0,-100.00,NE,39,1.0,3.0,46,0.00,,,0.00,0.000000,,2013-05-23 08:31:00,
2013-05-23 02:42:00,50.0,36.0,-100.00,North,350,1.0,2.0,58,0.00,,,0.00,0.000000,,2013-05-23 08:42:00,
2013-05-23 03:01:00,50.0,36.0,-100.00,North,350,1.0,2.0,58,0.00,,,0.00,0.000000,,2013-05-23 09:01:00,
2013-05-23 03:11:00,50.0,36.0,-100.00,North,350,1.0,2.0,58,0.00,,,0.00,0.000000,,2013-05-23 09:11:00,
2013-05-23 03:21:00,50.0,36.0,-100.00,North,350,1.0,2.0,58,0.00,,,0.00,0.000000,,2013-05-23 09:21:00,
2013-05-23 03:33:00,50.0,36.0,-100.00,North,350,1.0,2.0,58,0.00,,,0.00,0.000000,,2013-05-23 09:33:00,
2013-05-23 03:42:00,48.0,33.0,-100.00,ENE,67,0.0,4.0,56,0.00,,,0.00,0.000000,,2013-05-23 09:42:00,
2013-05-23 04:02:00,48.0,33.0,-100.00,ENE,67,0.0,4.0,56,0.00,,,0.00,0.000000,,2013-05-23 10:02:00,
2013-05-23 04:12:00,48.0,33.0,-100.00,ENE,67,0.0,4.0,56,0.00,,,0.00,0.000000,,2013-05-23 10:12:00,
2013-05-23 04:22:00,48.0,33.0,-100.00,ENE,67,0.0,4.0,56,0.00,,,0.00,0.000000,,2013-05-23 10:22:00,
2013-05-23 04:32:00,48.0,33.0,-100.00,ENE,67,0.0,4.0,56,0.00,,,0.00,0.000000,,2013-05-23 10:32:00,
2013-05-23 04:42:00,47.0,35.0,-100.00,ENE,67,1.0,4.0,63,0.00,,,0.00,0.000000,,2013-05-23 10:42:00,
2013-05-23 05:02:00,47.0,35.0,-100.00,ENE,67,1.0,4.0,63,0.00,,,0.00,0.000000,,2013-05-23 11:02:00,
2013-05-23 05:11:00,47.0,35.0,-100.00,ENE,67,1.0,4.0,63,0.00,,,0.00,0.000000,,2013-05-23 11:11:00,
2013-05-23 05:22:00,47.0,35.0,-100.00,ENE,67,1.0,4.0,63,0.00,,,0.00,0.000000,,2013-05-23 11:22:00,
2013-05-23 05:32:00,47.0,35.0,-100.00,ENE,67,1.0,4.0,63,0.00,,,0.00,0.000000,,2013-05-23 11:32:00,
2013-05-23 05:42:00,45.0,32.0,-100.00,North,359,0.0,4.0,60,0.00,,,0.00,0.000000,,2013-05-23 11:42:00,
2013-05-23 06:01:00,45.0,32.0,-100.00,North,359,0.0,4.0,60,0.00,,,0.00,0.000000,,2013-05-23 12:01:00,
2013-05-23 06:12:00,45.0,32.0,-100.00,North,359,0.0,4.0,60,0.00,,,0.00,0.000000,,2013-05-23 12:12:00,
2013-05-23 06:21:00,45.0,32.0,-100.00,North,359,0.0,4.0,60,0.00,,,0.00,0.000000,,2013-05-23 12:21:00,
2013-05-23 06:32:00,45.0,32.0,-100.00,North,359,0.0,4.0,60,0.00,,,0.00,0.000000,,2013-05-23 12:32:00,
2013-05-23 07:01:00,44.0,37.0,-100.00,NNW,330,0.0,0.0,76,0.00,,,0.00,10.000000,,2013-05-23 13:01:00,
2013-05-23 07:11:00,44.0,37.0,-100.00,NNW,330,0.0,0.0,76,0.00,,,0.00,10.000000,,2013-05-23 13:11:00,
2013-05-23 07:22:00,44.0,37.0,-100.00,NNW,330,0.0,0.0,76,0.00,,,0.00,10.000000,,2013-05-23 13:22:00,
2013-05-23 07:32:00,44.0,37.0,-100.00,NNW,330,0.0,0.0,76,0.00,,,0.00,10.000000,,2013-05-23 13:32:00,
2013-05-23 07:41:00,44.0,37.0,-100.00,NNW,330,0.0,0.0,76,0.00,,,0.00,10.000000,,2013-05-23 13:41:00,
2013-05-23 07:42:00,53.0,35.0,-100.00,NW,326,1.0,4.0,51,0.00,,,0.00,94.000000,,2013-05-23 13:42:00,
2013-05-23 08:02:00,53.0,35.0,-100.00,NW,326,1.0,4.0,51,0.00,,,0.00,94.000000,,2013-05-23 14:02:00,
2013-05-23 08:11:00,53.0,35.0,-100.00,NW,326,1.0,4.0,51,0.00,,,0.00,94.000000,,2013-05-23 14:11:00,
2013-05-23 08:21:00,53.0,35.0,-100.00,NW,326,1.0,4.0,51,0.00,,,0.00,94.000000,,2013-05-23 14:21:00,
2013-05-23 08:32:00,53.0,35.0,-100.00,NW,326,1.0,4.0,51,0.00,,,0.00,94.000000,,2013-05-23 14:32:00,
2013-05-23 08:42:00,68.0,35.0,-100.00,ENE,73,2.0,4.0,29,0.00,,,0.00,391.000000,,2013-05-23 14:42:00,
2013-05-23 09:01:00,68.0,35.0,-100.00,ENE,73,2.0,4.0,29,0.00,,,0.00,391.000000,,2013-05-23 15:01:00,
2013-05-23 09:11:00,68.0,35.0,-100.00,ENE,73,2.0,4.0,29,0.00,,,0.00,391.000000,,2013-05-23 15:11:00,
2013-05-23 09:21:00,68.0,35.0,-100.00,ENE,73,2.0,4.0,29,0.00,,,0.00,391.000000,,2013-05-23 15:21:00,
2013-05-23 09:33:00,68.0,35.0,-100.00,ENE,73,2.0,4.0,29,0.00,,,0.00,391.000000,,2013-05-23 15:33:00,
2013-05-23 09:42:00,78.0,32.0,-100.00,SW,229,1.0,4.0,19,0.00,,,0.00,644.000000,,2013-05-23 15:42:00,
2013-05-23 10:03:00,78.0,32.0,-100.00,SW,229,1.0,4.0,19,0.00,,,0.00,644.000000,,2013-05-23 16:03:00,
2013-05-23 10:12:00,78.0,32.0,-100.00,SW,229,1.0,4.0,19,0.00,,,0.00,644.000000,,2013-05-23 16:12:00,
2013-05-23 10:23:00,78.0,32.0,-100.00,SW,229,1.0,4.0,19,0.00,,,0.00,644.000000,,2013-05-23 16:23:00,
2013-05-23 10:33:00,78.0,32.0,-100.00,SW,229,1.0,4.0,19,0.00,,,0.00,644.000000,,2013-05-23 16:33:00,
2013-05-23 10:42:00,85.0,29.0,-100.00,SSW,198,3.0,7.0,13,0.00,,,0.00,758.000000,,2013-05-23 16:42:00,
2013-05-23 11:03:00,85.0,29.0,-100.00,SSW,198,3.0,7.0,13,0.00,,,0.00,758.000000,,2013-05-23 17:03:00,
2013-05-23 11:11:00,85.0,29.0,-100.00,SSW,198,3.0,7.0,13,0.00,,,0.00,758.000000,,2013-05-23 17:11:00,
2013-05-23 11:23:00,85.0,29.0,-100.00,SSW,198,3.0,7.0,13,0.00,,,0.00,758.000000,,2013-05-23 17:23:00,
2013-05-23 11:33:00,85.0,29.0,-100.00,SSW,198,3.0,7.0,13,0.00,,,0.00,758.000000,,2013-05-23 17:33:00,
2013-05-23 11:42:00,89.0,28.0,-100.00,SE,130,3.0,7.0,11,0.00,,,0.00,951.000000,,2013-05-23 17:42:00,
2013-05-23 12:01:00,89.0,28.0,-100.00,SE,130,3.0,7.0,11,0.00,,,0.00,951.000000,,2013-05-23 18:01:00,
2013-05-23 12:11:00,89.0,28.0,-100.00,SE,130,3.0,7.0,11,0.00,,,0.00,951.000000,,2013-05-23 18:11:00,
2013-05-23 12:22:00,89.0,28.0,-100.00,SE,130,3.0,7.0,11,0.00,,,0.00,951.000000,,2013-05-23 18:22:00,
2013-05-23 12:32:00,89.0,28.0,-100.00,SE,130,3.0,7.0,11,0.00,,,0.00,951.000000,,2013-05-23 18:32:00,
2013-05-23 12:42:00,93.0,28.0,-100.00,SSW,199,3.0,9.0,10,0.00,,,0.00,960.000000,,2013-05-23 18:42:00,
2013-05-23 13:01:00,93.0,28.0,-100.00,SSW,199,3.0,9.0,10,0.00,,,0.00,960.000000,,2013-05-23 19:01:00,
2013-05-23 13:11:00,93.0,28.0,-100.00,SSW,199,3.0,9.0,10,0.00,,,0.00,960.000000,,2013-05-23 19:11:00,
2013-05-23 13:21:00,93.0,28.0,-100.00,SSW,199,3.0,9.0,10,0.00,,,0.00,960.000000,,2013-05-23 19:21:00,
2013-05-23 13:32:00,93.0,28.0,-100.00,SSW,199,3.0,9.0,10,0.00,,,0.00,960.000000,,2013-05-23 19:32:00,
2013-05-23 13:42:00,93.0,26.0,-100.00,SW,219,6.0,12.0,9,0.00,,,0.00,970.000000,,2013-05-23 19:42:00,
2013-05-23 14:02:00,93.0,26.0,-100.00,SW,219,6.0,12.0,9,0.00,,,0.00,970.000000,,2013-05-23 20:02:00,
2013-05-23 14:11:00,93.0,26.0,-100.00,SW,219,6.0,12.0,9,0.00,,,0.00,970.000000,,2013-05-23 20:11:00,
2013-05-23 14:21:00,93.0,26.0,-100.00,SW,219,6.0,12.0,9,0.00,,,0.00,970.000000,,2013-05-23 20:21:00,
2013-05-23 14:32:00,93.0,26.0,-100.00,SW,219,6.0,12.0,9,0.00,,,0.00,970.000000,,2013-05-23 20:32:00,
2013-05-23 14:42:00,95.0,27.0,-100.00,SSW,204,4.0,12.0,9,0.00,,,0.00,970.000000,,2013-05-23 20:42:00,
2013-05-23 15:01:00,95.0,27.0,-100.00,SSW,204,4.0,12.0,9,0.00,,,0.00,970.000000,,2013-05-23 21:01:00,
2013-05-23 15:11:00,95.0,27.0,-100.00,SSW,204,4.0,12.0,9,0.00,,,0.00,970.000000,,2013-05-23 21:11:00,
2013-05-23 15:21:00,95.0,27.0,-100.00,SSW,204,4.0,12.0,9,0.00,,,0.00,970.000000,,2013-05-23 21:21:00,
2013-05-23 15:32:00,95.0,27.0,-100.00,SSW,204,4.0,12.0,9,0.00,,,0.00,970.000000,,2013-05-23 21:32:00,
2013-05-23 15:42:00,96.0,22.0,-100.00,SSE,156,5.0,12.0,7,0.00,,,0.00,934.000000,,2013-05-23 21:42:00,
2013-05-23 16:03:00,96.0,22.0,-100.00,SSE,156,5.0,12.0,7,0.00,,,0.00,934.000000,,2013-05-23 22:03:00,
2013-05-23 16:12:00,96.0,22.0,-100.00,SSE,156,5.0,12.0,7,0.00,,,0.00,934.000000,,2013-05-23 22:12:00,
2013-05-23 16:22:00,96.0,22.0,-100.00,SSE,156,5.0,12.0,7,0.00,,,0.00,934.000000,,2013-05-23 22:22:00,
2013-05-23 16:33:00,96.0,22.0,-100.00,SSE,156,5.0,12.0,7,0.00,,,0.00,934.000000,,2013-05-23 22:33:00,
2013-05-23 16:42:00,97.0,26.0,-100.00,South,172,4.0,14.0,8,0.00,,,0.00,799.000000,,2013-05-23 22:42:00,
2013-05-23 17:01:00,97.0,26.0,-100.00,South,172,4.0,14.0,8,0.00,,,0.00,799.000000,,2013-05-23 23:01:00,
2013-05-23 17:11:00,97.0,26.0,-100.00,South,172,4.0,14.0,8,0.00,,,0.00,799.000000,,2013-05-23 23:11:00,
2013-05-23 17:21:00,97.0,26.0,-100.00,South,172,4.0,14.0,8,0.00,,,0.00,799.000000,,2013-05-23 23:21:00,
2013-05-23 17:32:00,97.0,26.0,-100.00,South,172,4.0,14.0,8,0.00,,,0.00,799.000000,,2013-05-23 23:32:00,
2013-05-23 17:42:00,94.0,24.0,-100.00,SSE,158,4.0,15.0,8,0.00,,,0.00,597.000000,,2013-05-23 23:42:00,
2013-05-23 18:01:00,94.0,24.0,-100.00,SSE,158,4.0,15.0,8,0.00,,,0.00,597.000000,,2013-05-24 00:01:00,
2013-05-23 18:12:00,94.0,24.0,-100.00,SSE,158,4.0,15.0,8,0.00,,,0.00,597.000000,,2013-05-24 00:12:00,
2013-05-23 18:21:00,94.0,24.0,-100.00,SSE,158,4.0,15.0,8,0.00,,,0.00,597.000000,,2013-05-24 00:21:00,
2013-05-23 18:32:00,94.0,24.0,-100.00,SSE,158,4.0,15.0,8,0.00,,,0.00,597.000000,,2013-05-24 00:32:00,
2013-05-23 19:01:00,89.0,20.0,-100.00,SSE,148,3.0,11.0,8,0.00,,,0.00,215.000000,,2013-05-24 01:01:00,
2013-05-23 19:12:00,89.0,20.0,-100.00,SSE,148,3.0,11.0,8,0.00,,,0.00,215.000000,,2013-05-24 01:12:00,
2013-05-23 19:22:00,89.0,20.0,-100.00,SSE,148,3.0,11.0,8,0.00,,,0.00,215.000000,,2013-05-24 01:22:00,
2013-05-23 19:32:00,89.0,20.0,-100.00,SSE,148,3.0,11.0,8,0.00,,,0.00,215.000000,,2013-05-24 01:32:00,
2013-05-23 19:41:00,89.0,20.0,-100.00,SSE,148,3.0,11.0,8,0.00,,,0.00,215.000000,,2013-05-24 01:41:00,
2013-05-23 19:42:00,84.0,16.0,-100.00,SSE,162,3.0,9.0,8,0.00,,,0.00,39.000000,,2013-05-24 01:42:00,
2013-05-23 20:02:00,84.0,16.0,-100.00,SSE,162,3.0,9.0,8,0.00,,,0.00,39.000000,,2013-05-24 02:02:00,
2013-05-23 20:11:00,84.0,16.0,-100.00,SSE,162,3.0,9.0,8,0.00,,,0.00,39.000000,,2013-05-24 02:11:00,
2013-05-23 20:21:00,84.0,16.0,-100.00,SSE,162,3.0,9.0,8,0.00,,,0.00,39.000000,,2013-05-24 02:21:00,
2013-05-23 20:32:00,84.0,16.0,-100.00,SSE,162,3.0,9.0,8,0.00,,,0.00,39.000000,,2013-05-24 02:32:00,
2013-05-23 20:42:00,77.0,18.0,-100.00,ESE,115,1.0,8.0,11,0.00,,,0.00,7.000000,,2013-05-24 02:42:00,
2013-05-23 21:02:00,77.0,18.0,-100.00,ESE,115,1.0,8.0,11,0.00,,,0.00,7.000000,,2013-05-24 03:02:00,
2013-05-23 21:11:00,77.0,18.0,-100.00,ESE,115,1.0,8.0,11,0.00,,,0.00,7.000000,,2013-05-24 03:11:00,
2013-05-23 21:22:00,77.0,18.0,-100.00,ESE,115,1.0,8.0,11,0.00,,,0.00,7.000000,,2013-05-24 03:22:00,
2013-05-23 21:33:00,77.0,18.0,-100.00,ESE,115,1.0,8.0,11,0.00,,,0.00,7.000000,,2013-05-24 03:33:00,
2013-05-23 21:42:00,65.0,27.0,-100.00,East,95,0.0,2.0,24,0.00,,,0.00,0.000000,,2013-05-24 03:42:00,
2013-05-23 22:03:00,65.0,27.0,-100.00,East,95,0.0,2.0,24,0.00,,,0.00,0.000000,,2013-05-24 04:03:00,
2013-05-23 22:12:00,65.0,27.0,-100.00,East,95,0.0,2.0,24,0.00,,,0.00,0.000000,,2013-05-24 04:12:00,
2013-05-23 22:22:00,65.0,27.0,-100.00,East,95,0.0,2.0,24,0.00,,,0.00,0.000000,,2013-05-24 04:22:00,
2013-05-23 22:33:00,65.0,27.0,-100.00,East,95,0.0,2.0,24,0.00,,,0.00,0.000000,,2013-05-24 04:33:00,
2013-05-23 22:42:00,76.0,27.0,-100.00,ESE,106,8.0,12.0,16,0.00,,,0.00,0.000000,,2013-05-24 04:42:00,
2013-05-23 23:02:00,76.0,27.0,-100.00,ESE,106,8.0,12.0,16,0.00,,,0.00,0.000000,,2013-05-24 05:02:00,
2013-05-23 23:12:00,76.0,27.0,-100.00,ESE,106,8.0,12.0,16,0.00,,,0.00,0.000000,,2013-05-24 05:12:00,
2013-05-23 23:22:00,76.0,27.0,-100.00,ESE,106,8.0,12.0,16,0.00,,,0.00,0.000000,,2013-05-24 05:22:00,
2013-05-23 23:32:00,76.0,27.0,-100.00,ESE,106,8.0,12.0,16,0.00,,,0.00,0.000000,,2013-05-24 05:32:00,
2013-05-23 23:42:00,74.0,41.0,-100.00,WSW,257,1.0,9.0,30,0.00,,,0.00,0.000000,,2013-05-24 05:42:00,